Location: Ailingen
(47.6833°N, 9.5000°E)
Time: 07:45:14
(UTC+00:00)

Cosmos 1812 - Pass Details

Date: 18 November 2025
Orbit: 338 x 347 km, 82.5° (Epoch: 13 December)

Event Time Altitude Azimuth Distance (km) Brightness Sun altitude
Rises 16:16:13 0° 151° (SSE) 2,251 5.9 -6.0°
Reaches altitude 10° 16:18:44 10° 128° (SE) 1,398 4.6 -6.4°
Maximum altitude 16:20:39 16° 89° (E) 1,112 3.8 -6.7°
Drops below altitude 10° 16:22:33 10° 50° (NE) 1,395 4.3 -7.0°
Enters shadow 16:23:16 - 40° (NE) 1,608 4.7 -7.1°
